Location: Unspecified
(51.6250°N, 0.8230°E)
Time: 11:10:19
(UTC+01:00)

CZ-3 Stage 3 - Pass Details

Date: 07 August 2020
Orbit: 426 x 34763 km, 31.1° (Epoch: 22 September)

Event Time Altitude Azimuth Distance (km) Brightness Sun altitude
Rises 00:50:36 0° 95° (E) 19,838 9.6 -22.0°
Reaches altitude 10° 01:48:50 10° 84° (E) 28,467 10.6 -21.3°
Maximum altitude 07:00:30 35° 93° (E) 31,850 12.1 12.4°
Drops below altitude 10° 09:03:30 10° 91° (E) 16,353 10.7 31.3°
Sets 09:14:52 0° 89° (E) 14,695 10.0 33.0°
